sat.trackr.live / text

‹ back to catalog

ONEWEB-0342

NORAD 49208 · 2021-083Y

PAYLOAD ACTIVE UNKNOWN

§ Identity

Operator
Country
UK
Launch date
2021-09-14
Launch site
TYMSC
Launch vehicle
Mass (kg)
RCS (m²)

Purposes: comms

External: N2YO · Heavens-Above · Gunter

§ Orbital elements

Epoch: 2026-09-13T01:51:11.670624Z

Period
109.03 min
Inclination
87.9134°
Eccentricity
0.0001953
Mean motion
13.20770124 rev/d
Perigee alt
1,180.3 km
Apogee alt
1,183.3 km
Semi-major
7,559.9 km
B*
-9.6969e-5
RAAN
256.9042°
Arg perigee
85.9082°
Mean anomaly
274.2275°
Rev number
24,838

§ Raw data

ONEWEB-03421 49208U 21083Y   26256.07721841 -.00000026  00000+0 -96969-4 0  99902 49208  87.9134 256.9042 0001953  85.9082 274.2275 13.20770124248386

JSON: /api/v1/satellites/49208 · /tle

For live sub-satellite position, see the globe view (requires WebGL).

§ Visibility from observer

Set your observer location to see the next 7 days of passes ≥ 10°. The values pass through the URL so the page stays shareable.

No JS? Fill the form by hand. The geolocation button needs JavaScript.